EXPRESS-AM22 (SESAT 2)

Last updated on Wed Mar 06 2019 03:10:06 GMT+0000 (Coordinated Universal Time)

1 28134U 03060A 19064.19771608 .00000078 00000-0 00000+0 0 9990 2 28134 1.8091 88.5868 0004829 74.0258 105.5101 0.99556837 55589
UTC large
Height (km)
Speed (km/s)
/
Latitude / Longitude
Inclination (degrees)
Orbital Period (minutes)
Azimuth
Elevation
Range (km)
Doppler Factor

Next 0 passes for location: London (51.5072 / 0.1276)

Sorry there are no passes over London.
EXPRESS-AM22 (SESAT 2)